{"data":{"norad_id":65667,"epoch":"2026-09-20T22:13:50.610144Z","epoch_age_seconds":71751,"freshness":"FRESH","line1":"1 65667U 25211R   26263.92628021  .00010615  00000+0  33058-3 0  9994","line2":"2 65667  97.2839 304.0773 0001844  59.9980 300.1446 15.33453805 56580","mean_motion":15.33453805,"eccentricity":0.0001844,"inclination_deg":97.2839,"raan_deg":304.0773,"arg_perigee_deg":59.998,"mean_anomaly_deg":300.1446,"bstar":0.00033058,"rev_number":5658,"period_min":93.905665453026,"perigee_km":464.25500732495,"apogee_km":466.77894691171,"semimajor_km":6843.6539771183,"source":"CELESTRAK","updated_at":"2026-09-21T09:00:35.682263Z"}}